OBJECT AB, 61760

Orbit data source: Space-Track

You're viewing an Uncataloged Satellite

Recently launched and/or uncataloged satellites may have evolving metadata. Metadata may include but not limited to: Owner, Maufacturer, Bus, Motor, and Mission.

OBJECT AB, 61760 is a satellite in SSO that was launched on Mon, 04 Nov 2024 UTC via a SOYUZ-2-1B launch vehicle from the Vostochny Cosmodrome (VOSTO). Unknown objects in Earth's orbit typically refer to objects detected orbiting the Earth but have not yet been identified or cataloged. These objects could be anything from previously untracked satellites, spent rocket stages, debris from satellite collisions, or even natural meteoroids temporarily captured by Earth's gravity.

Loading next visibility...
Identifier
61760, 2024-199AB
Orbit
SSO
Country
Flag of TBDTBD
Related business
Manufacturer
Sputniks
Mission
Operational Commercial Communications
Bus & Motor
CUBESAT 3U?, Unknown motor
Mass
3 kg wet, 3 kg dry
Launch date (UTC)
2024-11-04 (10 months ago)
Launch vehicle
SOYUZ-2-1B
Launch site
Vostochny Cosmodrome (VOSTO)
Object type
Unknown
Shape & HBR
Box, 0.1 m
Radar Cross Section
0.035 m², Small (<0.1 m²)

Expand to show TLE details & history
Last TLE update: 15 hours ago

TLE from 15 hours ago
0 OBJECT AB
1 61760U 24199AB  25260.22407090  .00019415  00000-0  49412-3 0  9997
2 61760  97.3373 129.3225 0008701 175.5608 184.5716 15.39586487 95435
Epoch: 2025-09-17T05:22Z
TLE epoch observation values (Epoch: 2025-09-17T05:22:39.725Z)
Latitude
-0.00011°
Longitude
52.2539°
Altitude
456.371 km
Speed
7.635 km/s
True Right ascension
08h 37m 17s
True Declination
0° 00' 00"
Sunlit
Object was in daylight at epoch
Visualization orbit readout
Latitude
Unknown
Longitude
Unknown
Altitude
Unknown
Speed
Unknown
Apparent Right ascension
Unknown
Apparent Declination
Unknown
Sunlit
N/A
Visualization observer readout
Local Sidereal Time
13:09:20
Azimuth
Unknown
Elevation
Unknown
Doppler factor
Unknown
Orbital elements
Apogee altitude
450.204 km
Perigee altitude
438.332 km
Semi-major axis
6,822.405 km
Eccentricity
0.00087
Inclination
97.3373°
RAAN
129.3225°
Arg. of periapsis
175.5608°
True anomaly
184.56366°
Mean anomaly
184.5716°
Eccentric anomaly
184.56763°
Mean motion
3.85156 °/min
Orbital period
93.47 mins
BSTAR
0.00049412
Loading maneuver chart data...
Computing Atmospheric mass density...
Loading historical data...
Loading historical data...
Loading historical data...
Loading historical data...
Loading historical data...
Loading historical data...
Loading historical data...

Documentation

Showing up to 5 results
|